#timestamp,LO_Frequency,Hit 
1499594415.6,286046985.6,N
1499594435.5,286046985.5,N
1499594455.3,286046986.2,N
1499594475.1,286046985.5,N
1499594495.9,286046985.8,N
1499594515.7,286046986.7,N
1499594535.5,286046986.8,N
1499594555.4,286046983.8,N
1499594575.2,286046986.1,N
1499594595.1,286046986.1,N
1499594596.0,286046986.1,N
1499594615.8,286046988.4,N
1499594635.6,286046986.1,N
1499594655.5,286046985.6,N
1499594675.3,286046986.4,N
1499594695.1,286046986.6,N
1499594715.9,286046986.1,N
1499594735.7,286046986.3,N
1499594755.6,286046986.5,N
1499594775.4,286046986.6,N
1499594795.2,286046986.8,N
1499594815.1,286046984.2,N
1499594816.0,286046984.2,N
1499594835.8,286046984.5,N
1499594855.6,286046985.0,N
1499594875.5,286046984.8,N
1499594895.3,286046984.8,N
1499594915.2,286046982.2,N
1499594935.9,286046984.9,N
1499594955.7,286046984.5,N
1499594975.6,286046984.9,N
1499594995.4,286046982.5,N
1499595015.2,286046985.1,N
1499595035.1,286046982.1,N
1499595036.0,286046982.1,N
1499595055.8,286046984.6,N
1499595075.7,286046984.3,N
1499595095.5,286046984.3,N
1499595115.3,286046984.5,N
1499595135.2,286046983.7,N
1499595155.0,286046984.0,N
1499595155.9,286046984.0,N
1499595175.8,286046984.3,N
1499595195.6,286046984.4,N
1499595215.4,286046984.4,N
1499595235.3,286046984.5,N
1499595255.1,286046983.9,N
1499595275.8,286046984.4,N
1499595295.7,286046984.5,N
1499595315.5,286046984.4,N
1499595335.4,286046986.8,N
1499595355.2,286046983.7,N
1499595375.0,286046986.8,N
1499595375.9,286046986.8,N
1499595395.8,286046984.0,N
1499595415.6,286046983.8,N
1499595435.4,286046985.9,N
1499595455.3,286046985.9,N
1499595475.1,286046986.6,N
1499595495.9,286046985.9,N
1499595515.7,286046985.7,N
1499595535.5,286046988.1,N
1499595555.4,286046987.0,N
1499595575.2,286046989.3,N
1499595595.0,286046987.2,N
1499595595.9,286046987.2,N
1499595615.8,286046986.9,N
1499595635.6,286046987.6,N
1499595655.5,286046987.1,N
1499595675.3,286046989.5,N
1499595695.1,286046986.9,N
1499595715.9,286046989.3,N
1499595735.7,286046987.0,N
1499595755.5,286046987.5,N
1499595775.4,286046987.3,N
1499595795.2,286046987.5,N
1499595815.1,286046987.5,N
1499595816.0,286046987.5,N
1499595835.8,286046990.0,N
1499595855.6,286046987.3,N
1499595875.5,286046987.4,N
1499595895.3,286046987.2,N
1499595915.2,286046987.4,N
1499595935.9,286046990.0,N
1499595955.7,286046987.1,N
1499595975.6,286046990.0,N
1499595995.4,286046988.7,N
1499596015.2,286046988.8,N
1499596035.1,286046989.4,N
1499596036.0,286046989.4,N
1499596055.8,286046989.0,N
1499596075.7,286046991.4,N
1499596095.5,286046991.5,N
1499596115.3,286046990.9,N
1499596135.2,286046990.7,N
1499596155.0,286046991.4,N
1499596155.9,286046991.4,N
1499596175.7,286046993.1,N
1499596195.6,286046992.0,N
1499596215.4,286046993.1,N
1499596235.3,286046992.6,N
1499596255.1,286046990.3,N
1499596275.8,286046990.8,N
1499596295.7,286046990.9,N
1499596315.5,286046990.7,N
1499596335.4,286046992.7,N
1499596355.2,286046993.2,N
1499596375.0,286046992.8,N
1499596375.9,286046992.8,N
1499596395.8,286046990.1,N
1499596415.6,286046990.6,N
1499596435.4,286046993.1,N
1499596455.3,286046992.3,N
1499596475.1,286046991.9,N
1499596495.9,286046992.1,N
1499596515.7,286046994.1,N
1499596535.5,286046994.6,N
1499596555.4,286046993.8,N
1499596575.2,286046991.8,N
1499596595.1,286046991.7,N
1499596596.0,286046991.7,N
1499596615.8,286046992.9,N
1499596635.6,286046992.9,N
1499596655.5,286046992.4,N
1499596675.3,286046992.4,N
1499596695.1,286046994.1,N
1499596715.9,286046995.1,N
1499596735.7,286046996.0,N
1499596755.6,286046996.4,N
1499596775.4,286046996.3,N
1499596795.2,286046996.3,N
1499596815.1,286046995.5,N
1499596816.0,286046995.5,N
1499596835.8,286046993.3,N
1499596855.6,286046993.7,N
1499596875.5,286046994.4,N
1499596895.3,286046994.5,N
1499596915.2,286046994.1,N
1499596935.0,286046994.7,N
1499596935.9,286046994.7,N
1499596955.7,286046994.6,N
1499596975.6,286046993.9,N
1499596995.4,286046993.9,N
1499597015.3,286046995.3,N
1499597035.1,286046997.5,N
1499597055.8,286046996.2,N
1499597075.7,286046996.2,N
1499597095.5,286046996.2,N
1499597115.4,286046993.6,N
1499597135.2,286046993.5,N
1499597155.0,286046994.4,N
1499597155.9,286046994.4,N
1499597175.8,286046994.1,N
1499597195.6,286046993.8,N
1499597215.4,286046993.4,N
1499597235.3,286046993.8,N
1499597255.1,286046993.4,N
1499597275.9,286046993.8,N
1499597295.7,286046993.4,N
1499597315.5,286046996.2,N
1499597335.4,286046996.0,N
1499597355.2,286046993.6,N
1499597375.1,286046993.7,N
1499597376.0,286046993.7,N
1499597395.8,286046996.0,N
1499597415.6,286046996.3,N
1499597435.5,286046996.4,N
1499597455.3,286046997.6,N
1499597475.2,286046995.5,N
1499597495.9,286046995.4,N
1499597515.7,286046995.1,N
1499597535.6,286046997.4,N
1499597555.4,286046997.2,N
1499597575.2,286046997.6,N
1499597595.1,286046997.9,N
1499597596.0,286046997.9,N
1499597615.8,286046995.3,N
1499597635.7,286046995.4,N
1499597655.5,286046995.7,N
1499597675.3,286046995.4,N
1499597695.2,286046995.3,N
1499597745.0,286046999.5,Y
1499597755.9,286046999.4,N
1499597775.7,286046999.6,N
1499597795.5,286046996.6,N
1499597815.4,286046999.2,N
1499597835.2,286046999.6,N
1499597855.0,286046996.7,N
1499597855.9,286046996.7,N
1499597875.8,286046996.7,N
1499597895.6,286046996.7,N
1499597915.5,286046996.8,N
1499597935.3,286046995.3,N
1499597955.1,286046995.0,N
1499597975.9,286046995.3,N
1499597995.7,286046997.8,N
